Weather History for Novato, CA

Change the Weather History Date:

Thursday, November 8, 2012

  Actual Average (KAPC) Record (KAPC)
Temperature  
Mean Temperature 49 °F 53 °F  
Max Temperature 59 °F 67 °F 77 °F (2001)
Min Temperature 39 °F 40 °F 34 °F (2009)
Degree Days  
Heating Degree Days 16    
Month to date heating degree days  
Since 1 July heating degree days  
Cooling Degree Days 0    
Month to date cooling degree days  
Year to date cooling degree days  
Moisture  
Dew Point 43 °F    
Average Humidity 73    
Maximum Humidity 100    
Minimum Humidity 54    
Precipitation  
Precipitation 0.06 in - 1.42 in (1922)
Month to date precipitation  
Year to date precipitation  
Since 1 July precipitation  
Sea Level Pressure  
Sea Level Pressure 29.92 in    
Wind  
Wind Speed 8 mph (West)    
Max Wind Speed 17 mph    
Max Gust Speed 26 mph    
Visibility 10 miles    
Events Rain    
T = Trace of Precipitation, MM = Missing Value Source: NWS Daily Summary

Daily Weather History Graph

Daily Weather History Graph

Search for Another Location

Airport:

Trip Planner

Search our weather history database for the weather conditions in past years. The results will help you decide how hot, cold, wet, or windy it might be!

Date:

Astronomy

Nov. 08, 2012 Rise Set
Actual Time 6:44 AM PST 5:03 PM PST
Civil Twilight 6:16 AM PST 5:31 PM PST
Nautical Twilight 5:44 AM PST 6:02 PM PST
Astronomical Twilight 5:13 AM PST 6:33 PM PST
Moon 12:50 AM PST (11/8) 1:42 PM PST (11/8)
Length of Visible Light 11h 14m
Length of Day
10h 19m
Waning Crescent, 32% of the Moon is Illuminated
Nov 8
Waning Crescent
Nov 13
New
Nov 20
First Quarter
Nov 28
Full
Dec 6
Last Quarter

Hourly Weather History & Observations

Time (PST) Temp. Windchill Dew Point Humidity Pressure Visibility Wind Dir Wind Speed Gust Speed Precip Events Conditions
12:35 AM 53.6 °F - 48.2 °F 82% 29.91 in 10.0 mi SW 6.9 mph - N/A   Clear
12:55 AM 53.6 °F - 48.2 °F 82% 29.91 in 10.0 mi SSW 4.6 mph - N/A   Clear
1:15 AM 53.6 °F - 48.2 °F 82% 29.91 in 10.0 mi Calm Calm - N/A   Clear
1:35 AM 53.6 °F - 46.4 °F 77% 29.91 in 10.0 mi West 3.5 mph - N/A   Clear
1:55 AM 53.6 °F - 46.4 °F 77% 29.91 in 10.0 mi NW 6.9 mph - N/A   Clear
2:15 AM 53.6 °F - 46.4 °F 77% 29.91 in 10.0 mi West 6.9 mph - N/A   Clear
2:35 AM 53.6 °F - 46.4 °F 77% 29.91 in 10.0 mi West 5.8 mph - N/A   Clear
2:55 AM 53.6 °F - 46.4 °F 77% 29.90 in 10.0 mi West 12.7 mph 19.6 mph N/A   Clear
3:15 AM 53.6 °F - 46.4 °F 77% 29.90 in 10.0 mi WNW 17.3 mph 26.5 mph N/A   Clear
3:35 AM 53.6 °F - 44.6 °F 72% 29.90 in 10.0 mi West 13.8 mph 21.9 mph N/A   Clear
3:55 AM 53.6 °F - 44.6 °F 72% 29.90 in 10.0 mi WNW 10.4 mph 21.9 mph N/A   Clear
4:15 AM 53.6 °F - 41.0 °F 62% 29.90 in 10.0 mi West 15.0 mph 24.2 mph N/A   Clear
4:35 AM 53.6 °F - 39.2 °F 58% 29.91 in 10.0 mi WNW 10.4 mph 21.9 mph N/A   Clear
4:55 AM 53.6 °F - 37.4 °F 54% 29.91 in 10.0 mi West 13.8 mph 24.2 mph N/A   Clear
5:15 AM 53.6 °F - 37.4 °F 54% 29.92 in 10.0 mi West 16.1 mph 25.3 mph N/A   Clear
5:35 AM 51.8 °F - 37.4 °F 58% 29.92 in 10.0 mi West 12.7 mph 23.0 mph N/A   Clear
5:55 AM 51.8 °F - 37.4 °F 58% 29.92 in 10.0 mi West 13.8 mph 19.6 mph N/A   Clear
6:15 AM 51.8 °F - 37.4 °F 58% 29.93 in 10.0 mi West 11.5 mph 20.7 mph N/A   Clear
6:35 AM 51.8 °F - 39.2 °F 62% 29.93 in 10.0 mi West 15.0 mph 20.7 mph N/A   Clear
6:55 AM 51.8 °F - 39.2 °F 62% 29.93 in 10.0 mi West 11.5 mph - N/A   Partly Cloudy
7:15 AM 53.6 °F - 41.0 °F 62% 29.94 in 10.0 mi West 11.5 mph - N/A   Partly Cloudy
7:35 AM 53.6 °F - 41.0 °F 62% 29.95 in 10.0 mi WSW 6.9 mph - N/A   Clear
7:55 AM 53.6 °F - 41.0 °F 62% 29.95 in 10.0 mi West 6.9 mph - N/A   Clear
8:15 AM 55.4 °F - 41.0 °F 58% 29.96 in 10.0 mi West 5.8 mph - N/A   Clear
8:35 AM 55.4 °F - 42.8 °F 63% 29.96 in 10.0 mi WSW 6.9 mph - N/A   Clear
8:55 AM 55.4 °F - 44.6 °F 67% 29.95 in 10.0 mi SW 8.1 mph - N/A   Clear
9:15 AM 55.4 °F - 44.6 °F 67% 29.95 in 10.0 mi WSW 13.8 mph 23.0 mph N/A   Scattered Clouds
9:35 AM 57.2 °F - 44.6 °F 63% 29.95 in 10.0 mi West 6.9 mph - N/A   Partly Cloudy
9:55 AM 57.2 °F - 44.6 °F 63% 29.95 in 10.0 mi SW 10.4 mph 16.1 mph N/A   Mostly Cloudy
10:15 AM 59.0 °F - 44.6 °F 59% 29.95 in 10.0 mi SW 11.5 mph 17.3 mph N/A   Overcast
10:55 AM 55.4 °F - 48.2 °F 77% 29.95 in 7.0 mi West 6.9 mph 16.1 mph N/A Rain Light Rain
11:15 AM 55.4 °F - 50.0 °F 82% 29.95 in 3.0 mi West 6.9 mph - N/A Rain Light Rain
11:35 AM 55.4 °F - 50.0 °F 82% 29.94 in 6.0 mi West 10.4 mph - N/A   Haze
11:55 AM 53.6 °F - 50.0 °F 88% 29.94 in 3.0 mi West 10.4 mph - N/A Rain Light Rain
12:15 PM 53.6 °F - 51.8 °F 94% 29.94 in 2.5 mi NNW 12.7 mph - N/A Rain Light Rain
12:35 PM 51.8 °F - 51.8 °F 100% 29.93 in 8.0 mi NW 8.1 mph - 0.06 in Rain Light Rain
12:55 PM 53.6 °F - 48.2 °F 82% 29.92 in 10.0 mi West 10.4 mph - 0.06 in   Scattered Clouds
1:15 PM 55.4 °F - 46.4 °F 72% 29.91 in 10.0 mi West 12.7 mph 19.6 mph N/A   Partly Cloudy
1:35 PM 55.4 °F - 46.4 °F 72% 29.91 in 10.0 mi West 6.9 mph - N/A   Clear
1:55 PM 55.4 °F - 46.4 °F 72% 29.91 in 10.0 mi West 12.7 mph 16.1 mph N/A   Partly Cloudy
2:15 PM 55.4 °F - 46.4 °F 72% 29.90 in 10.0 mi WNW 8.1 mph - N/A   Partly Cloudy
2:35 PM 55.4 °F - 46.4 °F 72% 29.91 in 10.0 mi WNW 10.4 mph - N/A   Scattered Clouds
2:55 PM 53.6 °F - 44.6 °F 72% 29.91 in 10.0 mi West 11.5 mph 19.6 mph N/A   Scattered Clouds
3:15 PM 55.4 °F - 44.6 °F 67% 29.90 in 10.0 mi West 6.9 mph - N/A   Scattered Clouds
3:35 PM 53.6 °F - 44.6 °F 72% 29.91 in 10.0 mi West 9.2 mph - N/A   Partly Cloudy
3:55 PM 53.6 °F - 44.6 °F 72% 29.90 in 10.0 mi WNW 8.1 mph - N/A   Clear
4:15 PM 53.6 °F - 39.2 °F 58% 29.90 in 10.0 mi West 8.1 mph 20.7 mph N/A Rain Light Rain
4:35 PM 51.8 °F - 39.2 °F 62% 29.90 in 10.0 mi West 16.1 mph 19.6 mph N/A   Clear
4:55 PM 51.8 °F - 39.2 °F 62% 29.89 in 10.0 mi West 11.5 mph 17.3 mph N/A   Clear
5:15 PM 50.0 °F - 39.2 °F 66% 29.89 in 10.0 mi West 8.1 mph - N/A   Clear
5:35 PM 50.0 °F - 41.0 °F 71% 29.89 in 10.0 mi West 11.5 mph - N/A   Clear
5:55 PM 50.0 °F - 41.0 °F 71% 29.90 in 10.0 mi West 11.5 mph 17.3 mph N/A   Clear
6:15 PM 50.0 °F - 41.0 °F 71% 29.90 in 10.0 mi West 8.1 mph - N/A   Clear
6:35 PM 50.0 °F - 41.0 °F 71% 29.90 in 10.0 mi West 10.4 mph - N/A   Clear
6:55 PM 50.0 °F - 41.0 °F 71% 29.90 in 10.0 mi West 8.1 mph - N/A   Clear
7:15 PM 50.0 °F - 41.0 °F 71% 29.89 in 10.0 mi WSW 4.6 mph - N/A   Clear
7:35 PM 48.2 °F - 41.0 °F 76% 29.90 in 10.0 mi WSW 6.9 mph - N/A   Partly Cloudy
7:55 PM 50.0 °F - 39.2 °F 66% 29.90 in 10.0 mi West 12.7 mph 17.3 mph N/A   Clear
8:15 PM 48.2 °F - 37.4 °F 66% 29.90 in 10.0 mi West 6.9 mph 16.1 mph N/A   Clear
8:35 PM 50.0 °F - 37.4 °F 62% 29.90 in 10.0 mi Calm Calm - N/A   Clear
8:55 PM 46.4 °F - 41.0 °F 81% 29.91 in 10.0 mi Calm Calm - N/A   Clear
9:15 PM 44.6 °F - 39.2 °F 81% 29.91 in 10.0 mi Calm Calm - N/A   Clear
9:35 PM 44.6 °F - 39.2 °F 81% 29.91 in 10.0 mi Calm Calm - N/A   Clear
9:55 PM 42.8 °F 41.1 °F 39.2 °F 87% 29.91 in 10.0 mi SSE 3.5 mph - N/A   Clear
10:15 PM 41.0 °F - 39.2 °F 93% 29.92 in 10.0 mi Calm Calm - N/A   Clear
10:35 PM 41.0 °F - 39.2 °F 93% 29.92 in 10.0 mi Calm Calm - N/A   Clear
10:55 PM 41.0 °F - 41.0 °F 100% 29.92 in 10.0 mi Calm Calm - N/A   Clear
11:15 PM 41.0 °F - 39.2 °F 93% 29.92 in 10.0 mi Calm Calm - N/A   Clear
11:35 PM 39.2 °F - 39.2 °F 100% 29.92 in 10.0 mi Calm Calm - N/A   Clear
11:55 PM 39.2 °F - 39.2 °F 100% 29.92 in 10.0 mi Calm Calm - N/A   Clear